[[[{"header":{"parameterUnit":"kt","parameterCategory":2,"dx":1,"dy":1,"la1":30.253999710083008,"la2":30.299108505249023,"lo1":-89.0895004272461,"lo2":-89.04439544677734,"nx":28,"ny":28,"refTime":"2022-10-27T21:00:00:Z","depth":"0","parameterNumber":2,"parameterNumberName":"U-component_of_CURRENTS"},"data":[-0.4522,-0.4453,-0.4481,-0.4326,-0.4363,-0.4214,-0.4198,-0.4201,-0.4331,-0.4439,-0.4657,-0.4991,-0.5083,-0.549,-0.5227,-0.4974,-0.4828,-0.4661,-0.4703,-0.5032,-0.5088,-0.5142,-0.5046,-0.4621,-0.4621,-0.4127,-0.4125,-0.4123,-0.4665,-0.4696,-0.4745,-0.4824,-0.4798,-0.4963,-0.5098,-0.5058,-0.5084,-0.5368,-0.547,-0.5638,-0.5484,-0.5541,-0.5375,-0.5151,-0.4999,-0.5035,-0.5018,-0.4903,-0.5255,-0.5144,-0.4732,-0.4732,-0.4732,-0.4732,-0.4732,-0.4732,-0.4939,-0.4945,-0.5049,-0.5126,-0.5241,-0.531,-0.5317,-0.5549,-0.5684,-0.5843,-0.6138,-0.6179,-0.6225,-0.6038,-0.5926,-0.5666,-0.5771,-0.5524,-0.5641,-0.5665,-0.5406,-0.5763,-0.5522,-0.5525,-0.5528,-0.5531,-0.5533,0,-0.5152,-0.5221,-0.5319,-0.5431,-0.553,-0.5677,-0.5848,-0.5946,-0.6294,-0.6436,-0.6591,-0.6647,-0.6674,-0.6495,-0.6375,-0.6261,-0.6238,-0.6249,-0.6249,-0.5899,-0.5842,-0.5647,-0.6149,-0.6005,-0.6011,-0.6016,-0.6019,-0.6022,-0.5349,-0.5389,-0.5632,-0.5688,-0.5789,-0.5939,-0.6056,-0.6367,-0.6485,-0.6808,-0.6834,-0.6958,-0.6982,-0.6925,-0.6806,-0.67,-0.6665,-0.64,-0.6341,-0.6282,-0.6338,-0.6342,-0.6192,-0.6088,-0.608,-0.6073,-0.6067,0,-0.5429,-0.5613,-0.5741,-0.5999,-0.6072,-0.6131,-0.6415,-0.6515,-0.6745,-0.6882,-0.6925,-0.7157,-0.7165,-0.72,-0.7163,-0.7074,-0.6861,-0.6898,-0.666,-0.6587,-0.6333,-0.6408,-0.6287,-0.6099,-0.6705,-0.67,-0.6696,0,-0.563,-0.5711,-0.5956,-0.602,-0.6146,-0.6375,-0.6514,-0.6673,-0.6884,-0.6991,-0.7158,-0.7217,-0.7274,-0.7273,-0.7216,-0.7073,-0.7171,-0.6941,-0.6898,-0.6697,-0.6663,-0.6566,-0.6624,-0.7114,-0.7113,-0.7113,-0.7113,0,-0.5674,-0.5931,-0.6045,-0.6137,-0.6434,-0.6504,-0.6636,-0.6846,-0.696,-0.7118,-0.7184,-0.7269,-0.7268,-0.7248,-0.7179,-0.7175,-0.7147,-0.7133,-0.6923,-0.6911,-0.6655,-0.6616,-0.6592,-0.7113,-0.7113,-0.7113,-0.7113,0,-0.5846,-0.5975,-0.6131,-0.6385,-0.6441,-0.6539,-0.6739,-0.6873,-0.7047,-0.7109,-0.7176,-0.7194,-0.7247,-0.7169,-0.7174,-0.7158,-0.7095,-0.7062,-0.706,-0.6838,-0.676,-0.6523,-0.6546,-0.6496,-0.7017,-0.7016,-0.7016,0,-0.5854,-0.6028,-0.6181,-0.6335,-0.6436,-0.6593,-0.6729,-0.6859,-0.6943,-0.7032,-0.7059,-0.7103,-0.7064,-0.7057,-0.7073,-0.7035,-0.7044,-0.7028,-0.6937,-0.6935,-0.6743,-0.6824,-0.6578,-0.6554,-0.7008,-0.7009,-0.7009,0,-0.5852,-0.6119,-0.6124,-0.6214,-0.6419,-0.6485,-0.6631,-0.6771,-0.684,-0.6898,-0.6973,-0.7017,-0.6988,-0.6995,-0.6976,-0.6985,-0.7028,-0.691,-0.6907,-0.6895,-0.7019,-0.6836,-0.6823,-0.6986,-0.6987,-0.6988,-0.7003,0,-0.5998,-0.6096,-0.6133,-0.6284,-0.6373,-0.6456,-0.6582,-0.6648,-0.6675,-0.6729,-0.6796,-0.6787,-0.6808,-0.683,-0.6802,-0.6873,-0.6833,-0.6789,-0.6711,-0.6813,-0.6807,-0.6813,-0.6709,-0.6706,-0.6704,-0.6702,0,0,-0.5944,-0.6057,-0.6133,-0.6227,-0.6301,-0.6362,-0.6449,-0.651,-0.6581,-0.6611,-0.6569,-0.6626,-0.6605,-0.6682,-0.6717,-0.6714,-0.669,-0.6676,-0.6774,-0.6782,-0.679,-0.6789,-0.6797,-0.6698,-0.6697,-0.6697,-0.6696,0,-0.5993,-0.6062,-0.6112,-0.6201,-0.6298,-0.6355,-0.6381,-0.6463,-0.648,-0.6549,-0.6509,-0.6527,-0.6544,-0.6554,-0.656,-0.6678,-0.6597,-0.668,-0.6758,-0.6756,-0.6767,-0.6777,-0.6779,-0.6788,-0.6691,-0.6691,-0.6691,0,-0.6005,-0.6081,-0.6107,-0.6235,-0.6271,-0.6362,-0.6336,-0.6391,-0.6457,-0.638,-0.6423,-0.6405,-0.6393,-0.6441,-0.6453,-0.6417,-0.651,-0.6485,-0.6497,-0.6485,-0.6476,-0.6491,-0.6504,-0.633,-0.6329,-0.6328,0,0,-0.6031,-0.609,-0.6201,-0.6247,-0.6287,-0.6333,-0.6361,-0.6375,-0.6395,-0.6389,-0.6369,-0.6353,-0.6367,-0.6363,-0.6361,-0.6409,-0.6373,-0.6443,-0.646,-0.6474,-0.6471,-0.6466,-0.6481,-0.6324,-0.6324,-0.6324,0,0,-0.6024,-0.6144,-0.616,-0.6234,-0.6302,-0.6362,-0.637,-0.6384,-0.6383,-0.6354,-0.6308,-0.6297,-0.6324,-0.6298,-0.6255,-0.6339,-0.6267,-0.6275,-0.6356,-0.6376,-0.6393,-0.6386,-0.6167,0,0,0,0,0,-0.6099,-0.6145,-0.6159,-0.6181,-0.6283,-0.6373,-0.6382,-0.6372,-0.6335,-0.6355,-0.6326,-0.6265,-0.6272,-0.6233,-0.6229,-0.6277,-0.6276,-0.6284,-0.6292,-0.6407,-0.6429,-0.6448,0,0,0,0,0,0,-0.6109,-0.6137,-0.6158,-0.6225,-0.6249,-0.637,-0.6311,-0.631,-0.6331,-0.6322,-0.6277,-0.6264,-0.6223,-0.623,-0.6227,-0.6275,-0.6168,-0.6279,-0.6286,-0.6293,-0.6415,-0.6433,-0.6449,0,0,0,0,0,-0.6116,-0.6139,-0.6307,-0.6223,-0.6243,-0.6258,-0.6307,-0.6305,-0.6308,-0.6277,-0.6264,-0.6298,-0.6226,-0.6219,-0.6228,-0.6278,-0.6169,-0.6169,-0.6284,-0.6289,-0.6295,-0.6424,0,0,0,0,0,0,-0.6122,-0.612,-0.631,-0.6315,-0.6189,-0.6248,-0.6257,-0.6301,-0.6258,-0.6251,-0.6295,-0.6288,-0.623,-0.6223,-0.6217,-0.6284,-0.6171,-0.617,-0.6169,-0.6288,-0.6293,-0.6297,0,0,0,0,0,0,-0.6109,-0.6125,-0.6312,-0.627,-0.627,-0.624,-0.6248,-0.6253,-0.6254,-0.6274,-0.627,-0.6292,-0.6211,-0.6226,-0.6222,-0.6232,-0.6171,-0.6171,-0.617,-0.617,-0.6292,-0.6295,0,0,0,0,0,0,-0.6115,-0.6129,-0.6268,-0.6268,-0.6268,-0.6321,-0.6238,-0.632,-0.629,-0.6272,-0.6281,-0.6276,-0.6214,-0.621,-0.6225,-0.6238,-0.6234,-0.6171,-0.6171,-0.617,-0.617,0,0,0,0,0,0,0,-0.612,-0.6034,-0.6288,-0.6266,-0.6266,-0.6368,-0.6368,-0.6369,-0.6289,-0.6285,-0.6282,-0.6278,-0.6175,-0.6175,-0.6174,-0.6243,0,0,-0.6171,-0.6171,0,0,0,0,0,0,0,0,-0.6028,-0.6032,-0.6288,-0.629,-0.6292,-0.6368,-0.6368,-0.6369,-0.6289,-0.6286,-0.6283,-0.628,-0.6175,-0.6174,-0.6174,0,0,0,0,0,0,0,0,0,0,0,0,0,0,0,-0.6288,-0.629,0,-0.6368,-0.6368,-0.6368,-0.6288,-0.6286,-0.6283,-0.6281,-0.6175,-0.6174,-0.6174,0,0,0,0,0,0,0,0,0,0,0,0,0,0,0,0,0,0,0,0,0,0,0,0,0,0,0,0,0,0,0,0,0,0,0,0,0,0,0,0,0,0,0,0,0,0,0,0,0,0,0,0,0,0,0,0,0,0,0,0,0,0,0,0,0,0,0,0,0]}],[{"header":{"parameterUnit":"kt","parameterCategory":2,"dx":1,"dy":1,"la1":30.253999710083008,"la2":30.299108505249023,"lo1":-89.0895004272461,"lo2":-89.04439544677734,"nx":28,"ny":28,"refTime":"2022-10-27T21:00:00:Z","depth":"0","parameterNumber":3,"parameterNumberName":"V-component_of_CURRENTS"},"data":[-0.2322,-0.2523,-0.263,-0.2912,-0.304,-0.3152,-0.3171,-0.3071,-0.2791,-0.2101,-0.1335,-0.066,0.1121,0.365,0.5021,0.5094,0.5512,0.542,0.5656,0.4977,0.4887,0.48,0.4851,0.5674,0.5676,0.6609,0.6619,0.6626,-0.2252,-0.2393,-0.2578,-0.2764,-0.2915,-0.291,-0.2953,-0.2922,-0.2785,-0.2381,-0.1938,-0.0505,0.0827,0.2026,0.3514,0.4015,0.4102,0.4216,0.4365,0.4471,0.3473,0.3483,0.4028,0.4028,0.4027,0.4027,0.4026,0.4026,-0.2139,-0.2263,-0.2391,-0.2551,-0.2665,-0.2768,-0.2812,-0.2739,-0.2628,-0.2301,-0.1897,-0.1274,0.0065,0.1404,0.1904,0.2904,0.2761,0.3144,0.3282,0.3334,0.3549,0.2352,0.2764,0.2763,0.2761,0.276,0.2759,0,-0.2044,-0.2076,-0.2166,-0.2352,-0.2432,-0.2508,-0.2505,-0.2511,-0.2279,-0.2094,-0.1743,-0.1379,-0.0426,0.0471,0.1378,0.1769,0.2362,0.2164,0.256,0.2877,0.2965,0.321,0.1938,0.2264,0.226,0.2257,0.2254,0.2253,-0.1884,-0.1963,-0.2055,-0.2138,-0.2149,-0.2197,-0.2222,-0.206,-0.2006,-0.1666,-0.1605,-0.11,-0.0679,0.0255,0.0926,0.1623,0.1897,0.2047,0.2019,0.2367,0.2588,0.2664,0.2814,0.2207,0.2213,0.2218,0.2221,0,-0.1801,-0.1804,-0.1908,-0.1909,-0.1915,-0.1965,-0.19,-0.1886,-0.168,-0.1552,-0.1478,-0.1028,-0.0517,0.0013,0.0599,0.0917,0.1656,0.1558,0.1559,0.1655,0.2282,0.2413,0.2995,0.322,0.1943,0.1947,0.1952,0,-0.1643,-0.1706,-0.1706,-0.1747,-0.1828,-0.1694,-0.17,-0.1579,-0.1394,-0.1308,-0.0973,-0.0811,-0.0304,0.0064,0.0424,0.0947,0.0922,0.1264,0.1364,0.1402,0.1414,0.1862,0.2009,0.1223,0.122,0.1218,0.1217,0,-0.1489,-0.1524,-0.1608,-0.1593,-0.1526,-0.1512,-0.1456,-0.1248,-0.1182,-0.093,-0.0837,-0.0497,-0.0322,0.0017,0.045,0.0424,0.0924,0.0948,0.1255,0.1265,0.1459,0.1481,0.1987,0.1214,0.1213,0.1212,0.1211,0,-0.1319,-0.1356,-0.144,-0.1409,-0.1396,-0.1375,-0.1243,-0.1172,-0.0925,-0.08,-0.0589,-0.0383,-0.0128,-0.0035,0.0404,0.0307,0.0525,0.0721,0.0738,0.0924,0.1007,0.1305,0.1414,0.1806,0.0944,0.0941,0.0938,0,-0.12,-0.1272,-0.118,-0.1223,-0.1244,-0.1066,-0.1013,-0.0868,-0.0712,-0.058,-0.0336,-0.0196,-0.006,0.002,0.0177,0.0441,0.0565,0.0424,0.0833,0.0844,0.0939,0.0999,0.1084,0.1353,0.0899,0.0903,0.0906,0,-0.1076,-0.1028,-0.103,-0.104,-0.0901,-0.0862,-0.0792,-0.067,-0.0618,-0.0438,-0.0346,-0.0131,-0.0005,0.0097,0.0248,0.0382,0.0508,0.0472,0.0483,0.0571,0.0813,0.093,0.0968,0.0584,0.0587,0.059,0.0875,0,-0.0926,-0.0929,-0.0938,-0.0873,-0.0807,-0.0791,-0.0634,-0.0566,-0.0459,-0.0337,-0.0183,0.0013,0.0179,0.0236,0.0332,0.0446,0.0496,0.0556,0.0621,0.0603,0.0731,0.0754,0.0519,0.0522,0.0525,0.0527,0,0,-0.0826,-0.0824,-0.0698,-0.0694,-0.0651,-0.0486,-0.0496,-0.0396,-0.0233,-0.017,-0.0122,0.0151,0.028,0.0424,0.0422,0.0489,0.0581,0.0497,0.0598,0.0604,0.0611,0.0731,0.0751,0.0531,0.0532,0.0533,0.0533,0,-0.0755,-0.068,-0.0703,-0.0631,-0.0528,-0.0435,-0.0429,-0.0286,-0.0213,-0.0118,0.0019,0.0142,0.0307,0.0433,0.0515,0.0513,0.0642,0.0536,0.0466,0.0613,0.0616,0.062,0.0737,0.0753,0.0539,0.0539,0.0539,0,-0.0653,-0.0581,-0.0572,-0.0466,-0.0389,-0.0355,-0.0236,-0.018,-0.014,0.004,0.012,0.0244,0.0406,0.0496,0.0545,0.0578,0.0711,0.0652,0.0642,0.0641,0.0798,0.0801,0.0803,0.0775,0.0775,0.0775,0,0,-0.0602,-0.0583,-0.0449,-0.0441,-0.0404,-0.0267,-0.022,-0.0144,-0.0026,0.0023,0.0149,0.028,0.0395,0.0464,0.0572,0.0653,0.0757,0.0673,0.0662,0.0652,0.0646,0.0798,0.08,0.0775,0.0775,0.0775,0,0,-0.057,-0.0445,-0.0395,-0.0379,-0.0286,-0.0136,-0.0124,-0.0045,0.0064,0.0075,0.0238,0.0278,0.037,0.0465,0.045,0.0588,0.0642,0.0649,0.0512,0.0501,0.049,0.0452,0.0555,0,0,0,0,0,-0.0442,-0.0464,-0.042,-0.04,-0.0254,-0.0163,-0.0138,-0.0029,0.0014,0.0024,0.0153,0.0229,0.0491,0.0481,0.0516,0.0514,0.0777,0.0777,0.0776,0.0621,0.0607,0.0595,0,0,0,0,0,0,-0.0434,-0.0411,-0.0418,-0.0278,-0.0243,-0.0162,-0.0075,-0.0044,0.0015,0.0028,0.0203,0.0235,0.0344,0.0471,0.0501,0.0497,0.0546,0.0777,0.0777,0.0776,0.0616,0.0605,0.0595,0,0,0,0,0,-0.0426,-0.0408,-0.0213,-0.0275,-0.0245,-0.01,-0.0074,-0.0048,0.0003,0.0173,0.0206,0.008,0.0341,0.0375,0.049,0.048,0.0526,0.0537,0.0777,0.0777,0.0776,0.0611,0,0,0,0,0,0,-0.042,-0.0371,-0.0203,-0.0188,-0.0272,-0.0101,-0.0075,-0.0052,0.0148,0.0178,0.0057,0.0065,0.0338,0.0366,0.0391,0.0467,0.051,0.0521,0.0528,0.0777,0.0776,0.0776,0,0,0,0,0,0,-0.0379,-0.036,-0.0195,-0.0197,-0.0181,-0.0104,-0.0081,0.0025,0.015,0.0022,0.0034,0.0059,0.0311,0.0359,0.0379,0.054,0.0498,0.0508,0.0515,0.052,0.0776,0.0776,0,0,0,0,0,0,-0.0368,-0.0351,-0.02,-0.0188,-0.0174,0.0006,-0.0004,0.0146,0.012,0.0013,0.0124,0.0125,0.0303,0.0326,0.0371,0.0521,0.0535,0.0498,0.0505,0.051,0.0514,0,0,0,0,0,0,0,-0.0359,-0.0513,-0.0295,-0.0181,-0.0168,-0.0049,-0.0044,-0.004,0.012,0.0122,0.0123,0.0124,0.0439,0.045,0.0462,0.0506,0,0,0.0497,0.0502,0,0,0,0,0,0,0,0,-0.0517,-0.0514,-0.0295,-0.0292,-0.0289,-0.0048,-0.0044,-0.0041,0.0121,0.0122,0.0123,0.0124,0.0442,0.0451,0.0461,0,0,0,0,0,0,0,0,0,0,0,0,0,0,0,-0.0295,-0.0292,0,-0.0047,-0.0044,-0.0041,0.0121,0.0122,0.0123,0.0123,0.0445,0.0452,0.046,0,0,0,0,0,0,0,0,0,0,0,0,0,0,0,0,0,0,0,0,0,0,0,0,0,0,0,0,0,0,0,0,0,0,0,0,0,0,0,0,0,0,0,0,0,0,0,0,0,0,0,0,0,0,0,0,0,0,0,0,0,0,0,0,0,0,0,0,0]}]],[[{"header":{"parameterUnit":"kt","parameterCategory":2,"dx":1,"dy":1,"la1":30.253999710083008,"la2":30.299108505249023,"lo1":-89.0895004272461,"lo2":-89.04439544677734,"nx":28,"ny":28,"refTime":"2022-10-27T21:00:00:Z","depth":"2","parameterNumber":2,"parameterNumberName":"U-component_of_CURRENTS"},"data":[-0.4199,-0.4128,-0.4149,-0.3987,-0.4023,-0.386,-0.3831,-0.3759,-0.3785,-0.3644,-0.3614,-0.3989,-0.4158,-0.3503,-0.3374,-0.3055,-0.3348,-0.2905,-0.4184,-0.4173,-0.4253,-0.45,-0.4303,0,0,0,0,0,-0.4335,-0.4366,-0.441,-0.4478,-0.4442,-0.4605,-0.4713,-0.4635,-0.4624,-0.4791,-0.4848,-0.4436,-0.4274,-0.4315,-0.3915,-0.3879,-0.3824,-0.3719,-0.3634,-0.373,-0.3815,-0.3619,-0.2875,-0.287,-0.2866,-0.2862,0,0,-0.4596,-0.4602,-0.4699,-0.4771,-0.4878,-0.4931,-0.4928,-0.5133,-0.5242,-0.5343,-0.5641,-0.5554,-0.559,-0.5164,-0.4951,-0.4779,-0.5161,-0.4931,-0.4963,-0.5006,-0.4871,-0.479,-0.4459,-0.4465,-0.447,-0.4475,-0.448,0,-0.4792,-0.4862,-0.4952,-0.5059,-0.5155,-0.5284,-0.5447,-0.5535,-0.5861,-0.5991,-0.613,-0.6177,-0.6188,-0.587,-0.5752,-0.5614,-0.5715,-0.55,-0.632,-0.526,-0.5184,-0.5151,-0.5192,-0.4951,-0.4961,-0.4968,-0.4973,-0.4977,-0.4975,-0.5014,-0.5243,-0.5296,-0.5395,-0.554,-0.5649,-0.5943,-0.6051,-0.6361,-0.6385,-0.6514,-0.6528,-0.648,-0.6342,-0.6233,-0.6395,-0.5721,-0.5625,-0.6323,-0.6289,-0.6293,-0.6295,-0.5079,-0.5066,-0.5056,-0.5047,0,-0.5047,-0.5219,-0.5341,-0.5584,-0.5654,-0.5714,-0.5981,-0.6075,-0.63,-0.6431,-0.6478,-0.6701,-0.6716,-0.6754,-0.6725,-0.6636,-0.6553,-0.6468,-0.598,-0.5881,-0.6329,-0.6324,-0.6289,-0.6283,-0.6278,-0.6273,-0.627,0,-0.5227,-0.5307,-0.5539,-0.5599,-0.572,-0.5933,-0.6069,-0.622,-0.6422,-0.6523,-0.6691,-0.6749,-0.6814,-0.6817,-0.6765,-0.663,-0.6728,-0.6501,-0.646,-0.6043,-0.5992,-0.6574,-0.6562,-0.6672,-0.6671,-0.6671,-0.6671,0,-0.5266,-0.5507,-0.5615,-0.5699,-0.5972,-0.6045,-0.6169,-0.6368,-0.6475,-0.6637,-0.6706,-0.6793,-0.6803,-0.6787,-0.6727,-0.6722,-0.6702,-0.6687,-0.6484,-0.6472,-0.6008,-0.5951,-0.6671,-0.6671,-0.6671,-0.6671,-0.6671,0,-0.542,-0.554,-0.5689,-0.5923,-0.5975,-0.607,-0.6259,-0.6385,-0.6553,-0.6619,-0.6691,-0.6714,-0.6771,-0.6701,-0.6712,-0.6697,-0.6642,-0.6611,-0.661,-0.6394,-0.6319,-0.586,-0.5829,-0.657,-0.6569,-0.6568,-0.6568,0,-0.5423,-0.5587,-0.5726,-0.5873,-0.5966,-0.6111,-0.6239,-0.6364,-0.6448,-0.654,-0.657,-0.6622,-0.6586,-0.6591,-0.6607,-0.6577,-0.6587,-0.6569,-0.6491,-0.6489,-0.6303,-0.6382,-0.5888,-0.5846,-0.656,-0.656,-0.6561,0,-0.5414,-0.566,-0.5668,-0.5752,-0.5942,-0.6004,-0.6144,-0.6275,-0.6346,-0.6411,-0.6489,-0.6535,-0.6517,-0.6524,-0.651,-0.6521,-0.657,-0.6457,-0.6454,-0.6443,-0.6571,-0.6393,-0.6381,-0.6536,-0.6537,-0.6538,-0.6554,0,-0.5539,-0.5633,-0.567,-0.5811,-0.5895,-0.5975,-0.6092,-0.616,-0.6196,-0.6248,-0.6322,-0.6319,-0.6347,-0.6368,-0.6344,-0.6415,-0.6379,-0.6339,-0.6264,-0.6363,-0.6358,-0.6364,-0.6258,-0.6255,-0.6253,-0.6251,0,0,-0.5485,-0.5589,-0.566,-0.5749,-0.5818,-0.588,-0.5963,-0.6023,-0.6099,-0.6132,-0.61,-0.6166,-0.615,-0.6224,-0.626,-0.6258,-0.6239,-0.6226,-0.6324,-0.6333,-0.6341,-0.6341,-0.6349,-0.6248,-0.6247,-0.6246,-0.6245,0,-0.5522,-0.5587,-0.5637,-0.5719,-0.5816,-0.5869,-0.5897,-0.5979,-0.6002,-0.6075,-0.6043,-0.6067,-0.6092,-0.6102,-0.6108,-0.6223,-0.615,-0.6229,-0.6305,-0.6307,-0.6318,-0.6328,-0.6331,-0.634,-0.624,-0.6241,-0.6241,0,-0.5525,-0.5596,-0.5622,-0.5741,-0.578,-0.5865,-0.5846,-0.5907,-0.5971,-0.5905,-0.5959,-0.5948,-0.5938,-0.5989,-0.6005,-0.597,-0.6067,-0.6041,-0.6053,-0.6041,-0.6036,-0.6051,-0.6064,-0.589,-0.5889,-0.5888,0,0,-0.5546,-0.5602,-0.5704,-0.5751,-0.5789,-0.5839,-0.5869,-0.5888,-0.5913,-0.5914,-0.5903,-0.5896,-0.5912,-0.5913,-0.5915,-0.5966,-0.5931,-0.6001,-0.6017,-0.6031,-0.6027,-0.6027,-0.6041,-0.5885,-0.5885,-0.5885,0,0,-0.5539,-0.5648,-0.5665,-0.5735,-0.5803,-0.5861,-0.5876,-0.5894,-0.5903,-0.5883,-0.5845,-0.5837,-0.5873,-0.5849,-0.5807,-0.5895,-0.5825,-0.5833,-0.5912,-0.5932,-0.5948,-0.594,-0.5727,0,0,0,0,0,-0.5604,-0.5646,-0.5662,-0.5683,-0.5782,-0.5868,-0.5877,-0.5878,-0.5852,-0.5876,-0.5857,-0.5803,-0.5825,-0.5786,-0.5784,-0.5834,-0.5839,-0.5847,-0.5855,-0.5967,-0.5989,-0.6007,0,0,0,0,0,0,-0.5612,-0.5639,-0.5661,-0.5725,-0.5748,-0.5865,-0.5816,-0.5817,-0.5849,-0.5842,-0.5812,-0.5802,-0.5766,-0.5783,-0.5782,-0.5832,-0.5727,-0.5842,-0.5849,-0.5855,-0.5974,-0.5992,-0.6007,0,0,0,0,0,-0.562,-0.5641,-0.58,-0.5723,-0.5743,-0.5768,-0.5812,-0.5813,-0.5827,-0.5803,-0.5794,-0.5827,-0.5768,-0.5763,-0.5782,-0.5834,-0.5728,-0.5727,-0.5846,-0.5852,-0.5857,-0.5983,0,0,0,0,0,0,-0.5625,-0.5626,-0.5804,-0.5809,-0.5696,-0.576,-0.577,-0.5809,-0.5783,-0.5779,-0.5814,-0.5808,-0.5771,-0.5766,-0.5762,-0.5839,-0.5728,-0.5728,-0.5728,-0.585,-0.5855,-0.5859,0,0,0,0,0,0,-0.5615,-0.5631,-0.5806,-0.5772,-0.5773,-0.5753,-0.5762,-0.5768,-0.5779,-0.5791,-0.5789,-0.5811,-0.5753,-0.5769,-0.5765,-0.5778,-0.5728,-0.5728,-0.5728,-0.5728,-0.5854,-0.5857,0,0,0,0,0,0,-0.5622,-0.5635,-0.577,-0.5771,-0.5772,-0.5831,-0.5753,-0.5834,-0.5813,-0.5789,-0.5806,-0.5803,-0.5755,-0.5753,-0.5768,-0.5782,-0.5779,-0.5728,-0.5728,-0.5728,-0.5728,0,0,0,0,0,0,0,-0.5627,-0.5541,-0.5778,-0.577,-0.5771,-0.5866,-0.5867,-0.5867,-0.5813,-0.581,-0.5807,-0.5804,-0.573,-0.573,-0.5729,-0.5786,0,0,-0.5728,-0.5728,0,0,0,0,0,0,0,0,-0.5535,-0.5539,-0.5779,-0.578,-0.5782,-0.5866,-0.5867,-0.5867,-0.5812,-0.581,-0.5808,-0.5805,-0.573,-0.573,-0.5729,0,0,0,0,0,0,0,0,0,0,0,0,0,0,0,-0.5779,-0.578,0,-0.5866,-0.5867,-0.5867,-0.5812,-0.581,-0.5808,-0.5806,-0.573,-0.573,-0.573,0,0,0,0,0,0,0,0,0,0,0,0,0,0,0,0,0,0,0,0,0,0,0,0,0,0,0,0,0,0,0,0,0,0,0,0,0,0,0,0,0,0,0,0,0,0,0,0,0,0,0,0,0,0,0,0,0,0,0,0,0,0,0,0,0,0,0,0,0]}],[{"header":{"parameterUnit":"kt","parameterCategory":2,"dx":1,"dy":1,"la1":30.253999710083008,"la2":30.299108505249023,"lo1":-89.0895004272461,"lo2":-89.04439544677734,"nx":28,"ny":28,"refTime":"2022-10-27T21:00:00:Z","depth":"2","parameterNumber":3,"parameterNumberName":"V-component_of_CURRENTS"},"data":[-0.2251,-0.2448,-0.2551,-0.2828,-0.2956,-0.3069,-0.3091,-0.2981,-0.273,-0.2383,-0.1962,-0.1305,-0.0302,0.03,0.0998,0.1447,0.1426,0.1447,0.1487,0.1137,0.1121,0.1593,0.1437,0,0,0,0,0,-0.2182,-0.2319,-0.25,-0.2683,-0.2831,-0.2832,-0.288,-0.2843,-0.2728,-0.2376,-0.198,-0.115,-0.0276,0.0503,0.1376,0.1929,0.184,0.1966,0.1752,0.174,0.1731,0.1642,0.1835,0.1837,0.1839,0.184,0,0,-0.2069,-0.219,-0.2314,-0.2472,-0.2587,-0.2691,-0.2737,-0.2675,-0.2583,-0.2282,-0.1916,-0.1361,-0.0594,0.0609,0.1228,0.1757,0.1752,0.1849,0.1836,0.1825,0.1749,0.1674,0.1965,0.1966,0.1968,0.1969,0.197,0,-0.1973,-0.2005,-0.2091,-0.2275,-0.2356,-0.2433,-0.2437,-0.2446,-0.2226,-0.2061,-0.1743,-0.1407,-0.0527,0.0211,0.1066,0.1406,0.1568,0.1709,0.1708,0.1407,0.1317,0.1367,0.1344,0.1557,0.1556,0.1556,0.1556,0.1555,-0.1818,-0.1893,-0.1982,-0.2064,-0.2075,-0.2125,-0.2153,-0.1999,-0.1953,-0.1636,-0.1583,-0.1106,-0.0716,0.017,0.0791,0.1451,0.144,0.1668,0.1619,0.1527,0.1587,0.1557,0.153,0.1547,0.1548,0.1549,0.155,0,-0.1737,-0.1738,-0.1837,-0.1838,-0.1845,-0.1896,-0.1837,-0.1828,-0.1633,-0.1515,-0.1446,-0.1018,-0.0535,-0.002,0.0542,0.0849,0.1299,0.1452,0.1238,0.1302,0.1513,0.1492,0.1795,0.1801,0.1806,0.181,0.1814,0,-0.1583,-0.1643,-0.1641,-0.168,-0.176,-0.163,-0.164,-0.1525,-0.135,-0.1271,-0.0948,-0.0799,-0.0301,0.0048,0.0394,0.0884,0.0868,0.1186,0.1279,0.1129,0.1124,0.1098,0.1088,0.1165,0.1163,0.1161,0.1159,0,-0.1436,-0.1466,-0.1545,-0.1529,-0.1463,-0.1452,-0.1399,-0.1201,-0.114,-0.0899,-0.0814,-0.0483,-0.0317,0.001,0.0421,0.0399,0.0873,0.0901,0.1179,0.1187,0.1186,0.1189,0.1157,0.1156,0.1156,0.1155,0.1154,0,-0.1271,-0.1304,-0.1382,-0.1351,-0.1338,-0.1318,-0.1195,-0.1126,-0.089,-0.0771,-0.0567,-0.0372,-0.0125,-0.0036,0.0385,0.0292,0.0499,0.0686,0.0703,0.0859,0.0935,0.1024,0.1079,0.0899,0.0896,0.0893,0.089,0,-0.1159,-0.1224,-0.1134,-0.1173,-0.1192,-0.1021,-0.097,-0.0831,-0.0684,-0.0559,-0.0322,-0.0191,-0.0059,0.0014,0.0168,0.0416,0.0537,0.0403,0.0787,0.0798,0.0874,0.0929,0.0795,0.103,0.0853,0.0857,0.0859,0,-0.1042,-0.0991,-0.0995,-0.1003,-0.0867,-0.0831,-0.076,-0.0644,-0.0597,-0.0422,-0.0335,-0.0128,-0.001,0.0086,0.0231,0.0361,0.0482,0.0443,0.0453,0.0538,0.0773,0.0866,0.0901,0.0554,0.0557,0.056,0.083,0,-0.0897,-0.0899,-0.0907,-0.0843,-0.0779,-0.0764,-0.0613,-0.0549,-0.0448,-0.0332,-0.0184,0.0002,0.0159,0.0214,0.0304,0.0415,0.0461,0.0516,0.0579,0.0564,0.0684,0.0706,0.0479,0.0482,0.0484,0.0486,0,0,-0.0804,-0.0802,-0.0683,-0.0677,-0.0636,-0.0479,-0.0487,-0.0391,-0.0236,-0.0177,-0.0131,0.0127,0.0249,0.0389,0.0387,0.045,0.0536,0.0458,0.0556,0.0563,0.057,0.0683,0.0702,0.049,0.049,0.0491,0.0492,0,-0.0737,-0.0666,-0.0688,-0.0618,-0.052,-0.0432,-0.0425,-0.029,-0.022,-0.0129,-0.0,0.0117,0.0273,0.0394,0.0472,0.0471,0.0593,0.0492,0.043,0.057,0.0574,0.0578,0.0689,0.0704,0.0497,0.0497,0.0497,0,-0.064,-0.0572,-0.0563,-0.0464,-0.039,-0.0356,-0.0245,-0.0191,-0.0152,0.0018,0.0095,0.0211,0.0364,0.045,0.0497,0.0529,0.0658,0.0601,0.0592,0.059,0.0739,0.0742,0.0745,0.0712,0.0713,0.0713,0,0,-0.0591,-0.0573,-0.0446,-0.0439,-0.0404,-0.0275,-0.023,-0.0157,-0.0045,0.0002,0.0121,0.0245,0.0353,0.042,0.0521,0.06,0.0697,0.062,0.061,0.0601,0.0594,0.0739,0.0742,0.0713,0.0713,0.0713,0,0,-0.0559,-0.0442,-0.0395,-0.038,-0.0292,-0.0151,-0.0139,-0.0064,0.004,0.0051,0.0205,0.0243,0.033,0.042,0.0407,0.0538,0.0588,0.0594,0.047,0.0459,0.045,0.0414,0.0507,0,0,0,0,0,-0.0439,-0.046,-0.0419,-0.04,-0.0263,-0.0176,-0.0153,-0.0048,-0.0008,0.0002,0.0124,0.0197,0.0445,0.0436,0.0469,0.047,0.0715,0.0714,0.0714,0.0574,0.0561,0.0551,0,0,0,0,0,0,-0.043,-0.041,-0.0417,-0.0284,-0.0251,-0.0175,-0.0093,-0.0063,-0.0007,0.0005,0.0172,0.0202,0.0306,0.0427,0.0455,0.0453,0.0498,0.0715,0.0714,0.0714,0.057,0.0559,0.055,0,0,0,0,0,-0.0423,-0.0406,-0.0224,-0.0281,-0.0253,-0.0116,-0.0092,-0.0067,-0.0018,0.0143,0.0174,0.0055,0.0302,0.0335,0.0444,0.0438,0.0479,0.0489,0.0714,0.0714,0.0714,0.0565,0,0,0,0,0,0,-0.0418,-0.0371,-0.0214,-0.02,-0.0278,-0.0117,-0.0092,-0.0071,0.0119,0.0148,0.0033,0.0041,0.03,0.0326,0.0351,0.0425,0.0464,0.0474,0.048,0.0714,0.0714,0.0714,0,0,0,0,0,0,-0.0379,-0.0361,-0.0207,-0.0208,-0.0193,-0.0119,-0.0097,0.0003,0.0121,0.0,0.0011,0.0034,0.0275,0.032,0.0339,0.0491,0.0452,0.0462,0.0469,0.0473,0.0714,0.0714,0,0,0,0,0,0,-0.0368,-0.0352,-0.0211,-0.02,-0.0186,-0.0016,-0.0025,0.0116,0.0093,-0.0009,0.0096,0.0098,0.0267,0.0288,0.0331,0.0473,0.0486,0.0453,0.0459,0.0464,0.0467,0,0,0,0,0,0,0,-0.036,-0.0505,-0.0302,-0.0192,-0.018,-0.0069,-0.0065,-0.006,0.0093,0.0094,0.0096,0.0097,0.0397,0.0407,0.0418,0.0459,0,0,0.0452,0.0456,0,0,0,0,0,0,0,0,-0.0508,-0.0506,-0.0301,-0.0298,-0.0296,-0.0068,-0.0065,-0.0061,0.0093,0.0094,0.0095,0.0097,0.04,0.0408,0.0417,0,0,0,0,0,0,0,0,0,0,0,0,0,0,0,-0.0301,-0.0299,0,-0.0068,-0.0065,-0.0062,0.0093,0.0094,0.0095,0.0096,0.0402,0.0409,0.0416,0,0,0,0,0,0,0,0,0,0,0,0,0,0,0,0,0,0,0,0,0,0,0,0,0,0,0,0,0,0,0,0,0,0,0,0,0,0,0,0,0,0,0,0,0,0,0,0,0,0,0,0,0,0,0,0,0,0,0,0,0,0,0,0,0,0,0,0,0]}]],[[{"header":{"parameterUnit":"kt","parameterCategory":2,"dx":1,"dy":1,"la1":30.253999710083008,"la2":30.299108505249023,"lo1":-89.0895004272461,"lo2":-89.04439544677734,"nx":28,"ny":28,"refTime":"2022-10-27T21:00:00:Z","depth":"4","parameterNumber":2,"parameterNumberName":"U-component_of_CURRENTS"},"data":[-0.2696,-0.2775,-0.2803,-0.2715,-0.2729,-0.2853,-0.2995,-0.3233,-0.3194,-0.355,-0.3538,-0.3812,-0.3817,-0.4051,-0.3833,-0.3862,-0.3886,-0.4186,-0.4175,-0.4408,-0.4449,-0.4484,-0.4353,0,0,0,0,0,-0.282,-0.2822,-0.2922,-0.3043,-0.3206,-0.3292,-0.3562,-0.3747,-0.4072,-0.3925,-0.4108,-0.4087,-0.403,-0.4136,-0.3934,-0.4299,-0.4359,-0.4048,-0.423,-0.4433,-0.4478,-0.4335,0,0,0,0,0,0,-0.3004,-0.3043,-0.3226,-0.3356,-0.3542,-0.358,-0.3759,-0.3856,-0.3988,-0.4345,-0.4314,-0.4483,-0.4709,-0.4559,-0.4499,-0.4397,-0.4347,-0.4211,-0.4264,-0.4308,-0.4153,-0.4033,-0.3635,0,0,0,0,0,-0.3163,-0.3312,-0.345,-0.3639,-0.3805,-0.3958,-0.4166,-0.4206,-0.452,-0.4819,-0.4788,-0.4784,-0.4785,-0.4779,-0.4714,-0.4641,-0.4957,-0.4794,-0.4817,-0.4794,-0.4751,-0.4723,-0.4745,-0.4646,-0.4651,-0.4655,-0.4657,0,-0.3353,-0.3427,-0.3765,-0.3861,-0.4018,-0.4235,-0.4368,-0.4687,-0.478,-0.5085,-0.5086,-0.5231,-0.5326,-0.5036,-0.516,-0.5054,-0.4986,-0.491,-0.4885,-0.4822,-0.4782,-0.4794,-0.4803,-0.4692,-0.469,-0.4687,-0.4684,0,-0.3436,-0.3647,-0.3822,-0.4138,-0.4242,-0.4355,-0.4675,-0.4781,-0.5042,-0.5172,-0.5242,-0.5471,-0.5479,-0.5548,-0.5547,-0.538,-0.5261,-0.5135,-0.5519,-0.5487,-0.487,-0.4865,-0.4751,-0.4738,-0.4727,-0.4718,-0.471,0,-0.362,-0.3745,-0.4045,-0.4123,-0.43,-0.4525,-0.4719,-0.4892,-0.5121,-0.522,-0.5435,-0.549,-0.5629,-0.5643,-0.5608,-0.54,-0.5597,-0.5206,-0.5148,-0.5511,-0.5506,-0.5456,-0.5443,-0.5568,-0.5568,-0.5568,-0.5568,0,-0.3675,-0.394,-0.4087,-0.4176,-0.4466,-0.4591,-0.4744,-0.4974,-0.5092,-0.5318,-0.5411,-0.5541,-0.5601,-0.5605,-0.5575,-0.5581,-0.5576,-0.5568,-0.5208,-0.5184,-0.5451,-0.5438,-0.5568,-0.5568,-0.5568,-0.5568,-0.5568,0,-0.3816,-0.3944,-0.4127,-0.4375,-0.4436,-0.4569,-0.4804,-0.4945,-0.5155,-0.5262,-0.5384,-0.5445,-0.5542,-0.5498,-0.5545,-0.5535,-0.55,-0.548,-0.5479,-0.5089,-0.4997,-0.528,-0.5431,-0.543,-0.543,-0.5429,-0.5428,0,-0.3814,-0.3991,-0.412,-0.4305,-0.4403,-0.4569,-0.4716,-0.4876,-0.5009,-0.5154,-0.5228,-0.5343,-0.5333,-0.5386,-0.5416,-0.5416,-0.5434,-0.541,-0.5351,-0.5349,-0.4996,-0.5046,-0.5406,-0.5416,-0.5418,-0.5419,-0.5419,0,-0.3781,-0.4028,-0.4053,-0.4151,-0.4355,-0.4428,-0.4604,-0.4762,-0.4871,-0.5013,-0.5136,-0.5247,-0.5271,-0.5298,-0.5313,-0.5338,-0.541,-0.5299,-0.5296,-0.5278,-0.5439,-0.5077,-0.5049,-0.5397,-0.5399,-0.5401,-0.5411,0,-0.3859,-0.3978,-0.4029,-0.418,-0.4279,-0.4386,-0.4514,-0.4634,-0.4739,-0.4815,-0.4969,-0.5016,-0.5102,-0.5141,-0.5136,-0.5237,-0.5206,-0.517,-0.5091,-0.5202,-0.5192,-0.52,-0.5075,-0.5072,-0.507,-0.5068,0,0,-0.3795,-0.3898,-0.3978,-0.4071,-0.4156,-0.4257,-0.4355,-0.4446,-0.4595,-0.4661,-0.468,-0.4846,-0.4876,-0.4978,-0.5034,-0.5048,-0.5041,-0.5039,-0.5157,-0.5167,-0.5177,-0.5173,-0.5182,-0.5064,-0.5063,-0.5062,-0.5062,0,-0.3783,-0.3873,-0.3942,-0.4028,-0.4161,-0.4219,-0.427,-0.4391,-0.4469,-0.4607,-0.4622,-0.4708,-0.4815,-0.4843,-0.4866,-0.501,-0.4959,-0.5043,-0.5125,-0.5138,-0.5151,-0.5163,-0.5162,-0.5172,-0.5056,-0.5057,-0.5057,0,-0.3751,-0.3822,-0.3866,-0.3991,-0.4064,-0.4156,-0.4168,-0.4283,-0.4376,-0.4367,-0.4524,-0.456,-0.4587,-0.4695,-0.4749,-0.4712,-0.487,-0.484,-0.4852,-0.484,-0.4847,-0.4864,-0.4879,-0.4679,-0.4678,-0.4677,0,0,-0.3743,-0.3817,-0.3912,-0.399,-0.4038,-0.4128,-0.4189,-0.4247,-0.4324,-0.4372,-0.4431,-0.4492,-0.4547,-0.4596,-0.4639,-0.4736,-0.4701,-0.4796,-0.4814,-0.4829,-0.4825,-0.4836,-0.4853,-0.4673,-0.4673,-0.4673,0,0,-0.3725,-0.3829,-0.3871,-0.3959,-0.4048,-0.4119,-0.4188,-0.4239,-0.4334,-0.4362,-0.4377,-0.4392,-0.4513,-0.4511,-0.4458,-0.4628,-0.4552,-0.4563,-0.4636,-0.4658,-0.4676,-0.4658,-0.4405,0,0,0,0,0,-0.3755,-0.3811,-0.3848,-0.3874,-0.4008,-0.4099,-0.4119,-0.4196,-0.4228,-0.4286,-0.4347,-0.4326,-0.4488,-0.4441,-0.4452,-0.4533,-0.4621,-0.463,-0.4639,-0.4755,-0.4778,-0.4798,0,0,0,0,0,0,-0.3766,-0.3793,-0.3847,-0.3915,-0.3948,-0.4096,-0.4095,-0.4117,-0.4225,-0.4235,-0.4315,-0.4325,-0.4319,-0.4434,-0.4444,-0.4522,-0.4401,-0.4625,-0.4632,-0.4639,-0.4763,-0.4782,-0.4798,0,0,0,0,0,-0.3774,-0.3796,-0.3994,-0.3916,-0.3943,-0.4055,-0.4095,-0.4114,-0.4211,-0.4236,-0.4252,-0.4278,-0.4318,-0.4331,-0.444,-0.4518,-0.4394,-0.4398,-0.463,-0.4636,-0.4641,-0.4772,0,0,0,0,0,0,-0.378,-0.3804,-0.4001,-0.4013,-0.392,-0.4051,-0.4074,-0.411,-0.4208,-0.4226,-0.419,-0.4196,-0.4316,-0.4327,-0.4337,-0.4519,-0.4388,-0.4392,-0.4394,-0.4634,-0.4639,-0.4643,0,0,0,0,0,0,-0.3794,-0.3813,-0.4007,-0.4008,-0.4021,-0.4047,-0.4067,-0.4105,-0.4207,-0.4154,-0.4164,-0.4191,-0.4297,-0.4324,-0.4332,-0.4388,-0.4383,-0.4387,-0.439,-0.4391,-0.4638,-0.4642,0,0,0,0,0,0,-0.3803,-0.382,-0.4005,-0.4015,-0.4026,-0.4158,-0.408,-0.4209,-0.4228,-0.4147,-0.423,-0.4232,-0.4292,-0.4303,-0.4328,-0.4381,-0.4386,-0.4383,-0.4386,-0.4388,-0.4389,0,0,0,0,0,0,0,-0.3811,-0.3678,-0.3939,-0.402,-0.403,-0.4122,-0.4125,-0.4127,-0.4228,-0.4229,-0.423,-0.4231,-0.4362,-0.4366,-0.437,-0.4374,0,0,-0.4383,-0.4385,0,0,0,0,0,0,0,0,-0.3673,-0.3677,-0.3939,-0.3942,-0.3945,-0.4123,-0.4125,-0.4127,-0.4228,-0.4229,-0.423,-0.4231,-0.4363,-0.4366,-0.4369,0,0,0,0,0,0,0,0,0,0,0,0,0,0,0,-0.3939,-0.3942,0,-0.4123,-0.4125,-0.4126,-0.4228,-0.4229,-0.423,-0.423,-0.4364,-0.4366,-0.4369,0,0,0,0,0,0,0,0,0,0,0,0,0,0,0,0,0,0,0,0,0,0,0,0,0,0,0,0,0,0,0,0,0,0,0,0,0,0,0,0,0,0,0,0,0,0,0,0,0,0,0,0,0,0,0,0,0,0,0,0,0,0,0,0,0,0,0,0,0]}],[{"header":{"parameterUnit":"kt","parameterCategory":2,"dx":1,"dy":1,"la1":30.253999710083008,"la2":30.299108505249023,"lo1":-89.0895004272461,"lo2":-89.04439544677734,"nx":28,"ny":28,"refTime":"2022-10-27T21:00:00:Z","depth":"4","parameterNumber":3,"parameterNumberName":"V-component_of_CURRENTS"},"data":[-0.146,-0.1632,-0.1727,-0.1938,-0.2068,-0.222,-0.2263,-0.2191,-0.2058,-0.1883,-0.1535,-0.1288,-0.066,-0.0902,-0.0026,0.0096,0.0263,0.0907,0.0913,0.1173,0.1172,0.1172,0.1026,0,0,0,0,0,-0.1426,-0.1549,-0.1728,-0.1903,-0.2067,-0.2145,-0.2204,-0.218,-0.2053,-0.1884,-0.1738,-0.1334,-0.069,-0.0402,-0.0022,0.0128,0.0672,0.0577,0.0782,0.1172,0.1172,0.103,0,0,0,0,0,0,-0.139,-0.1494,-0.1637,-0.1799,-0.1965,-0.2072,-0.2093,-0.2027,-0.1976,-0.1708,-0.1626,-0.1137,-0.0826,-0.0243,0.0159,0.0549,0.0636,0.073,0.0753,0.0758,0.058,0.0403,0.046,0,0,0,0,0,-0.1333,-0.1398,-0.149,-0.1694,-0.1806,-0.1908,-0.1958,-0.1963,-0.1825,-0.1723,-0.145,-0.1085,-0.0668,-0.0141,0.0291,0.0687,0.0995,0.1097,0.1099,0.1078,0.0989,0.1027,0.1011,0.1172,0.1172,0.1172,0.1172,0,-0.1251,-0.132,-0.146,-0.1555,-0.1591,-0.1676,-0.1726,-0.1642,-0.1621,-0.141,-0.1374,-0.1021,-0.075,-0.0113,0.0323,0.0879,0.0944,0.1095,0.107,0.0986,0.1029,0.1011,0.0995,0.1171,0.1171,0.1171,0.1171,0,-0.121,-0.1238,-0.1343,-0.1389,-0.1418,-0.1482,-0.1491,-0.15,-0.1371,-0.1298,-0.1249,-0.0907,-0.053,-0.0104,0.037,0.0583,0.0926,0.1022,0.0886,0.0937,0.1004,0.0987,0.1171,0.1171,0.1171,0.1171,0.1171,0,-0.1122,-0.1186,-0.1228,-0.1265,-0.1359,-0.1275,-0.1315,-0.1238,-0.1123,-0.1075,-0.0817,-0.0707,-0.0271,0.0009,0.0303,0.0648,0.0699,0.0862,0.0924,0.0847,0.0832,0.0912,0.0902,0.0979,0.0977,0.0976,0.0974,0,-0.1031,-0.1073,-0.1149,-0.1143,-0.1117,-0.1127,-0.1105,-0.0966,-0.0933,-0.0753,-0.0699,-0.0416,-0.0284,-0.0002,0.0335,0.0332,0.0712,0.0754,0.0871,0.0869,0.0899,0.0892,0.0972,0.0972,0.0972,0.0971,0.0971,0,-0.0918,-0.0951,-0.1022,-0.1023,-0.1018,-0.1016,-0.0944,-0.0898,-0.0725,-0.0637,-0.0473,-0.032,-0.011,-0.0031,0.0328,0.0253,0.0425,0.0582,0.0595,0.0596,0.0645,0.0711,0.0742,0.074,0.0737,0.0735,0.0733,0,-0.0844,-0.0899,-0.0838,-0.088,-0.0898,-0.0781,-0.0747,-0.0648,-0.0542,-0.0455,-0.026,-0.0164,-0.0045,0.0009,0.015,0.035,0.0457,0.0349,0.0652,0.066,0.0611,0.0636,0.0492,0.0697,0.0702,0.0705,0.0707,0,-0.076,-0.0734,-0.0739,-0.0754,-0.0657,-0.0637,-0.0584,-0.0503,-0.0475,-0.0335,-0.0275,-0.0099,-0.0009,0.0068,0.0186,0.0303,0.041,0.0367,0.0376,0.0439,0.065,0.06,0.0616,0.0477,0.048,0.0482,0.0683,0,-0.0657,-0.0668,-0.0675,-0.0633,-0.059,-0.0583,-0.0474,-0.0429,-0.0357,-0.0271,-0.0155,-0.0005,0.0116,0.0165,0.0236,0.0336,0.0365,0.0413,0.0463,0.0458,0.0545,0.0564,0.0371,0.0373,0.0374,0.0375,0,0,-0.0593,-0.0598,-0.0516,-0.0512,-0.0488,-0.0377,-0.0385,-0.0313,-0.0199,-0.0157,-0.0121,0.008,0.0179,0.0296,0.0297,0.0346,0.0413,0.0354,0.0446,0.0453,0.046,0.0543,0.0559,0.0378,0.0379,0.0379,0.038,0,-0.0542,-0.0501,-0.0519,-0.0471,-0.0405,-0.0343,-0.0338,-0.0241,-0.019,-0.0121,-0.0022,0.0073,0.0193,0.0292,0.0355,0.0359,0.0454,0.0375,0.0334,0.0455,0.046,0.0465,0.0546,0.0559,0.0383,0.0383,0.0383,0,-0.0471,-0.0427,-0.0426,-0.036,-0.031,-0.0287,-0.0207,-0.017,-0.014,-0.0012,0.0048,0.0138,0.0257,0.0329,0.0368,0.0392,0.0502,0.0454,0.0448,0.0444,0.0572,0.0576,0.058,0.0531,0.0531,0.0531,0,0,-0.0433,-0.0427,-0.0341,-0.0342,-0.0318,-0.0228,-0.0198,-0.0145,-0.0061,-0.0026,0.0066,0.0163,0.0248,0.0304,0.0381,0.0448,0.0522,0.0467,0.046,0.0454,0.0447,0.0572,0.0576,0.0531,0.0531,0.0531,0,0,-0.0408,-0.0332,-0.0302,-0.0299,-0.0238,-0.0138,-0.0132,-0.0077,0.0002,0.001,0.0129,0.016,0.0231,0.03,0.0289,0.0398,0.0432,0.0437,0.0349,0.0342,0.0336,0.0305,0.0367,0,0,0,0,0,-0.0325,-0.0344,-0.0319,-0.0308,-0.0218,-0.0157,-0.0141,-0.0066,-0.0037,-0.0029,0.0066,0.0123,0.0318,0.0311,0.0337,0.0345,0.0532,0.0532,0.0532,0.0435,0.0427,0.0419,0,0,0,0,0,0,-0.032,-0.0307,-0.0318,-0.0225,-0.0203,-0.0156,-0.0096,-0.0075,-0.0036,-0.0026,0.0103,0.0127,0.0207,0.0304,0.0326,0.0331,0.036,0.0532,0.0532,0.0532,0.0432,0.0425,0.0419,0,0,0,0,0,-0.0315,-0.0305,-0.0188,-0.0223,-0.0204,-0.0108,-0.0095,-0.0077,-0.0042,0.008,0.0105,0.0011,0.0204,0.023,0.0317,0.0319,0.0345,0.0353,0.0532,0.0532,0.0532,0.0429,0,0,0,0,0,0,-0.0312,-0.0278,-0.0182,-0.0172,-0.0218,-0.0108,-0.0092,-0.008,0.0066,0.0088,-0.0006,-0.0,0.0202,0.0223,0.0242,0.0309,0.0333,0.0341,0.0346,0.0532,0.0532,0.0532,0,0,0,0,0,0,-0.0283,-0.0271,-0.0177,-0.0176,-0.0165,-0.0109,-0.0094,-0.0016,0.0068,-0.0027,-0.0019,-0.0005,0.0186,0.0218,0.0233,0.0353,0.0324,0.0331,0.0337,0.034,0.0532,0.0532,0,0,0,0,0,0,-0.0276,-0.0265,-0.0177,-0.0169,-0.016,-0.0043,-0.0035,0.0062,0.0037,-0.0034,0.004,0.0042,0.018,0.0197,0.0227,0.0338,0.0349,0.0324,0.0329,0.0333,0.0335,0,0,0,0,0,0,0,-0.027,-0.0367,-0.0243,-0.0164,-0.0155,-0.0083,-0.008,-0.0077,0.0038,0.0039,0.004,0.0041,0.028,0.0288,0.0297,0.0327,0,0,0.0323,0.0327,0,0,0,0,0,0,0,0,-0.0368,-0.0367,-0.0242,-0.0241,-0.0239,-0.0082,-0.008,-0.0077,0.0038,0.0039,0.004,0.004,0.0282,0.0289,0.0296,0,0,0,0,0,0,0,0,0,0,0,0,0,0,0,-0.0242,-0.0241,0,-0.0082,-0.008,-0.0078,0.0038,0.0039,0.0039,0.004,0.0284,0.029,0.0295,0,0,0,0,0,0,0,0,0,0,0,0,0,0,0,0,0,0,0,0,0,0,0,0,0,0,0,0,0,0,0,0,0,0,0,0,0,0,0,0,0,0,0,0,0,0,0,0,0,0,0,0,0,0,0,0,0,0,0,0,0,0,0,0,0,0,0,0,0]}]]]